Cape Girardeau, MO

12:24 PM CST on December 06, 2019 (GMT -0600)
Cape Girardeau Regional

Weather History for KCGI - October, 2019

Change the Weather History Date:

Thursday, October 3, 2019

  Actual Average Record
Temperature  
Mean Temperature 76 °F 62 °F  
Max Temperature 89 °F 75 °F 93 °F (1969)
Min Temperature 62 °F 49 °F 32 °F (1974)
Degree Days  
Heating Degree Days 0 5  
Month to date heating degree days 0 15  
Since 1 July heating degree days 0 64  
Cooling Degree Days 11 2  
Month to date cooling degree days 41 6  
Year to date cooling degree days 1765 1428  
Growing Degree Days 26 (Base 50)    
Moisture  
Dew Point 64 °F    
Average Humidity 74    
Maximum Humidity 93    
Minimum Humidity 54    
Precipitation  
Precipitation 0.00 in 0.12 in 2.13 in (1990)
Month to date precipitation 0.00 0.34  
Year to date precipitation 47.67 34.67  
Sea Level Pressure  
Sea Level Pressure 30.06 in    
Wind  
Wind Speed 7 mph (NNW)    
Max Wind Speed 20 mph    
Max Gust Speed 28 mph    
Visibility 9 miles    
Events      
T = Trace of Precipitation, MM = Missing Value Source: NWS Daily Summary

Daily Weather History Graph

Daily Weather History Graph

Search for Another Location

Airport or City:

Astronomy

Oct. 03, 2019 Rise Set
Actual Time 6:55 AM CDT 6:38 PM CDT
Civil Twilight 6:29 AM CDT 7:04 PM CDT
Nautical Twilight 5:59 AM CDT 7:34 PM CDT
Astronomical Twilight 5:28 AM CDT 8:05 PM CDT
Moon 12:20 PM CDT (10/3) 10:24 PM CDT (10/3)
Length of Visible Light 12h 35m
Length of Day
11h 43m
Waxing Crescent, 30% of the Moon is Illuminated
Oct 3
Waxing Crescent
Oct 5
First Quarter
Oct 13
Full
Oct 21
Last Quarter
Oct 27
New

Hourly Weather History & Observations

Time (CDT) Temp. Heat Index Dew Point Humidity Pressure Visibility Wind Dir Wind Speed Gust Speed Precip Events Conditions
12:53 AM 71.1 °F - 64.0 °F 78% 29.94 in 10.0 mi West 4.6 mph - N/A   Clear
1:53 AM 69.1 °F - 64.0 °F 84% 29.96 in 10.0 mi Calm Calm - N/A   Clear
2:53 AM 68.0 °F - 64.0 °F 87% 29.97 in 10.0 mi Calm Calm - N/A   Clear
3:53 AM 66.0 °F - 64.0 °F 93% 29.98 in 9.0 mi Calm Calm - N/A   Clear
4:53 AM 66.0 °F - 63.0 °F 90% 29.99 in 7.0 mi Calm Calm - N/A   Clear
5:53 AM 64.9 °F - 63.0 °F 93% 30.00 in 7.0 mi Calm Calm - N/A   Clear
6:53 AM 64.9 °F - 63.0 °F 93% 30.01 in 6.0 mi Calm Calm - N/A   Clear
7:53 AM 69.1 °F - 66.0 °F 90% 30.03 in 5.0 mi Calm Calm - N/A   Clear
8:53 AM 75.0 °F - 66.9 °F 76% 30.06 in 10.0 mi West 3.5 mph - N/A   Clear
9:53 AM 80.1 °F 82.3 °F 66.9 °F 64% 30.06 in 10.0 mi NW 5.8 mph - N/A   Clear
10:53 AM 84.0 °F 87.8 °F 69.1 °F 61% 30.06 in 10.0 mi NNE 6.9 mph - N/A   Clear
11:53 AM 86.0 °F 90.7 °F 70.0 °F 59% 30.07 in 10.0 mi North 10.4 mph - N/A   Mostly Cloudy
12:53 PM 87.1 °F 91.3 °F 69.1 °F 55% 30.06 in 10.0 mi North 8.1 mph - N/A   Mostly Cloudy
1:53 PM 86.0 °F 89.4 °F 68.0 °F 55% 30.05 in 10.0 mi NW 6.9 mph - N/A   Scattered Clouds
2:53 PM 88.0 °F 92.1 °F 69.1 °F 53% 30.05 in 10.0 mi NNW 12.7 mph 19.6 mph N/A   Scattered Clouds
3:53 PM 86.0 °F 89.4 °F 68.0 °F 55% 30.06 in 10.0 mi North 10.4 mph - N/A   Clear
4:53 PM 82.9 °F 84.6 °F 64.9 °F 54% 30.06 in 10.0 mi North 11.5 mph - N/A   Clear
5:53 PM 80.1 °F 81.5 °F 63.0 °F 56% 30.07 in 10.0 mi North 12.7 mph - N/A   Clear
6:53 PM 77.0 °F - 60.1 °F 56% 30.09 in 10.0 mi North 12.7 mph - N/A   Clear
7:53 PM 73.0 °F - 59.0 °F 61% 30.12 in 10.0 mi North 10.4 mph 20.7 mph N/A   Clear
8:53 PM 70.0 °F - 57.0 °F 63% 30.14 in 10.0 mi North 16.1 mph 23.0 mph N/A   Clear
9:53 PM 68.0 °F - 57.0 °F 68% 30.17 in 10.0 mi North 10.4 mph 19.6 mph N/A   Clear
10:53 PM 64.9 °F - 53.1 °F 65% 30.19 in 10.0 mi North 9.2 mph - N/A   Clear
11:53 PM 64.0 °F - 54.0 °F 70% 30.21 in 10.0 mi North 13.8 mph - N/A   Scattered Clouds